Location: Camerons Lookout
(40.9833°S, 175.9333°E)
Time: 19:38:41
(UTC+00:00)

Cosmos 1356 Rocket - Pass Details

Date: 14 January 2026
Orbit: 516 x 557 km, 81.2° (Epoch: 15 February)

Event Time Altitude Azimuth Distance (km) Brightness Sun altitude
Exits shadow 11:46:52 43° 172° (S) 776 4.4 -27.1°
Drops below altitude 10° 11:49:40 10° 171° (S) 1,834 6.9 -27.2°
Sets 11:51:52 0° 170° (S) 2,743 8.0 -27.3°
